Weather History for Forest City, IA

Change the Weather History Date:

Wednesday, August 7, 2013

  Actual Average Record
Temperature  
Mean Temperature 68 °F -  
Max Temperature 77 °F 81 °F 91 °F (2012)
Min Temperature 59 °F 59 °F 59 °F (2012)
Cooling Degree Days 3    
Growing Degree Days 18 (Base 50)    
Moisture  
Dew Point 58 °F    
Average Humidity 71    
Maximum Humidity 94    
Minimum Humidity 41    
Precipitation  
Precipitation 0.00 in - - ()
Sea Level Pressure  
Sea Level Pressure 29.95 in    
Wind  
Wind Speed 6 mph (NNW)    
Max Wind Speed 21 mph    
Max Gust Speed 32 mph    
Visibility 10 miles    
Events      
Averages and records for this station are not official NWS values.
T = Trace of Precipitation, MM = Missing Value Source: NWS Daily Summary

Daily Weather History Graph

Daily Weather History Graph

Search for Another Location

Airport:

Trip Planner

Search our weather history database for the weather conditions in past years. The results will help you decide how hot, cold, wet, or windy it might be!

Date:

Astronomy

Aug. 07, 2013 Rise Set
Actual Time 6:11 AM CDT 8:28 PM CDT
Civil Twilight 5:39 AM CDT 8:59 PM CDT
Nautical Twilight 5:00 AM CDT 9:38 PM CDT
Astronomical Twilight 4:16 AM CDT 10:22 PM CDT
Moon 7:03 AM CDT (8/7) 8:31 PM CDT (8/7)
Length of Visible Light 15h 20m
Length of Day
14h 16m
New Moon, 1% of the Moon is Illuminated
Aug 7
New Moon
Aug 14
First Quarter
Aug 20
Full
Aug 28
Last Quarter
Sep 5
New

Hourly Weather History & Observations

Time (CDT) Temp. Dew Point Humidity Pressure Visibility Wind Dir Wind Speed Gust Speed Precip Events Conditions
12:15 AM 71.6 °F 68.0 °F 88% 29.82 in 10.0 mi SW 3.5 mph - N/A   Mostly Cloudy
12:55 AM 71.6 °F 66.2 °F 83% 29.83 in 10.0 mi WNW 3.5 mph - N/A   Mostly Cloudy
1:15 AM 71.6 °F 66.2 °F 83% 29.84 in 10.0 mi WNW 4.6 mph - N/A   Scattered Clouds
1:35 AM 69.8 °F 64.4 °F 83% 29.84 in 10.0 mi Calm Calm - N/A   Clear
1:55 AM 69.8 °F 64.4 °F 83% 29.84 in 10.0 mi Calm Calm - N/A   Clear
2:15 AM 69.8 °F 64.4 °F 83% 29.84 in 10.0 mi Calm Calm - N/A   Clear
2:35 AM 68.0 °F 62.6 °F 83% 29.84 in 10.0 mi NW 4.6 mph - N/A   Clear
2:55 AM 69.8 °F 64.4 °F 83% 29.84 in 10.0 mi NW 5.8 mph - N/A   Clear
3:15 AM 69.8 °F 62.6 °F 78% 29.84 in 10.0 mi NW 8.1 mph - N/A   Clear
3:35 AM 68.0 °F 62.6 °F 83% 29.84 in 10.0 mi NW 6.9 mph - N/A   Clear
3:55 AM 68.0 °F 62.6 °F 83% 29.84 in 10.0 mi NW 5.8 mph - N/A   Clear
4:15 AM 66.2 °F 62.6 °F 88% 29.84 in 10.0 mi NW 3.5 mph - N/A   Clear
4:35 AM 64.4 °F 60.8 °F 88% 29.85 in 10.0 mi NNW 5.8 mph - N/A   Clear
4:55 AM 64.4 °F 60.8 °F 88% 29.85 in 10.0 mi NW 4.6 mph - N/A   Clear
5:15 AM 64.4 °F 59.0 °F 83% 29.85 in 10.0 mi NNW 4.6 mph - N/A   Clear
5:35 AM 62.6 °F 59.0 °F 88% 29.86 in 10.0 mi Calm Calm - N/A   Mostly Cloudy
5:55 AM 62.6 °F 59.0 °F 88% 29.86 in 10.0 mi NNW 6.9 mph - N/A   Overcast
6:15 AM 62.6 °F 59.0 °F 88% 29.86 in 10.0 mi North 11.5 mph - N/A   Overcast
6:35 AM 62.6 °F 60.8 °F 94% 29.87 in 10.0 mi North 10.4 mph 18.4 mph N/A   Overcast
6:55 AM 62.6 °F 60.8 °F 94% 29.88 in 7.0 mi NNW 13.8 mph 17.3 mph N/A   Overcast
7:15 AM 62.6 °F 60.8 °F 94% 29.89 in 10.0 mi North 9.2 mph - N/A   Overcast
7:35 AM 64.4 °F 60.8 °F 88% 29.91 in 10.0 mi NNW 8.1 mph - N/A   Overcast
7:55 AM 64.4 °F 60.8 °F 88% 29.92 in 10.0 mi North 9.2 mph - N/A   Overcast
8:15 AM 64.4 °F 60.8 °F 88% 29.92 in 10.0 mi North 6.9 mph - N/A   Overcast
8:35 AM 64.4 °F 60.8 °F 88% 29.93 in 7.0 mi NNW 5.8 mph - N/A   Overcast
8:55 AM 64.4 °F 60.8 °F 88% 29.94 in 7.0 mi NW 9.2 mph - N/A   Overcast
9:15 AM 64.4 °F 60.8 °F 88% 29.95 in 10.0 mi NNW 9.2 mph 16.1 mph N/A   Overcast
9:35 AM 68.0 °F 60.8 °F 78% 29.95 in 10.0 mi North 8.1 mph - N/A   Overcast
9:55 AM 66.2 °F 60.8 °F 83% 29.96 in 10.0 mi North 8.1 mph 21.9 mph N/A   Overcast
10:15 AM 66.2 °F 60.8 °F 83% 29.97 in 10.0 mi North 9.2 mph - N/A   Overcast
10:35 AM 68.0 °F 59.0 °F 73% 29.99 in 10.0 mi NNW 9.2 mph - N/A   Overcast
10:55 AM 68.0 °F 59.0 °F 73% 30.00 in 10.0 mi NNW 9.2 mph - N/A   Overcast
11:15 AM 68.0 °F 57.2 °F 68% 30.00 in 10.0 mi NNW 10.4 mph - N/A   Overcast
11:35 AM 69.8 °F 57.2 °F 64% 30.00 in 10.0 mi NNW 20.7 mph 27.6 mph N/A   Overcast
11:55 AM 69.8 °F 57.2 °F 64% 30.00 in 10.0 mi North 8.1 mph 18.4 mph N/A   Overcast
12:15 PM 71.6 °F 57.2 °F 60% 30.00 in 10.0 mi North 4.6 mph 19.6 mph N/A   Overcast
12:35 PM 71.6 °F 55.4 °F 57% 29.99 in 10.0 mi North 11.5 mph 18.4 mph N/A   Overcast
12:55 PM 71.6 °F 55.4 °F 57% 29.99 in 10.0 mi NNW 15.0 mph 32.2 mph N/A   Mostly Cloudy
1:15 PM 73.4 °F 55.4 °F 53% 29.99 in 10.0 mi NNW 11.5 mph 24.2 mph N/A   Mostly Cloudy
1:35 PM 73.4 °F 55.4 °F 53% 29.99 in 10.0 mi North 10.4 mph 20.7 mph N/A   Scattered Clouds
1:55 PM 73.4 °F 55.4 °F 53% 29.99 in 10.0 mi North 4.6 mph 24.2 mph N/A   Clear
2:15 PM 73.4 °F 55.4 °F 53% 29.99 in 10.0 mi North 6.9 mph 20.7 mph N/A   Scattered Clouds
2:35 PM 75.2 °F 53.6 °F 47% 29.98 in 10.0 mi NNW 13.8 mph 25.3 mph N/A   Clear
2:55 PM 75.2 °F 55.4 °F 50% 29.98 in 10.0 mi NNW 9.2 mph 25.3 mph N/A   Scattered Clouds
3:15 PM 75.2 °F 53.6 °F 47% 29.98 in 10.0 mi North 10.4 mph 23.0 mph N/A   Scattered Clouds
3:35 PM 77.0 °F 53.6 °F 44% 29.98 in 10.0 mi NNW 12.7 mph 25.3 mph N/A   Clear
3:55 PM 77.0 °F 53.6 °F 44% 29.98 in 10.0 mi North 10.4 mph 24.2 mph N/A   Clear
4:15 PM 77.0 °F 53.6 °F 44% 29.98 in 10.0 mi NNW 9.2 mph 21.9 mph N/A   Clear
4:35 PM 77.0 °F 53.6 °F 44% 29.98 in 10.0 mi NNW 6.9 mph 24.2 mph N/A   Clear
4:55 PM 77.0 °F 53.6 °F 44% 29.98 in 10.0 mi North 10.4 mph 24.2 mph N/A   Clear
5:15 PM 77.0 °F 51.8 °F 41% 29.98 in 10.0 mi North 11.5 mph - N/A   Clear
5:35 PM 75.2 °F 53.6 °F 47% 29.98 in 10.0 mi NNW 9.2 mph - N/A   Clear
5:55 PM 75.2 °F 51.8 °F 44% 29.98 in 10.0 mi NW 8.1 mph - N/A   Clear
6:15 PM 75.2 °F 53.6 °F 47% 29.98 in 10.0 mi North 11.5 mph - N/A   Clear
6:35 PM 73.4 °F 51.8 °F 47% 29.99 in 10.0 mi NNW 11.5 mph - N/A   Clear
6:55 PM 73.4 °F 53.6 °F 50% 29.99 in 10.0 mi NNW 6.9 mph 16.1 mph N/A   Clear
7:15 PM 71.6 °F 53.6 °F 53% 29.99 in 10.0 mi North 4.6 mph - N/A   Clear
7:35 PM 71.6 °F 53.6 °F 53% 29.99 in 10.0 mi Calm Calm - N/A   Clear
7:55 PM 69.8 °F 53.6 °F 56% 29.99 in 10.0 mi North 5.8 mph - N/A   Clear
8:15 PM 69.8 °F 53.6 °F 56% 30.00 in 10.0 mi North 3.5 mph - N/A   Clear
8:35 PM 68.0 °F 55.4 °F 64% 30.01 in 10.0 mi Calm Calm - N/A   Clear
8:55 PM 64.4 °F 53.6 °F 68% 30.01 in 10.0 mi Calm Calm - N/A   Clear
9:15 PM 64.4 °F 55.4 °F 73% 30.02 in 10.0 mi Calm Calm - N/A   Clear
9:35 PM 64.4 °F 55.4 °F 73% 30.03 in 10.0 mi NNW 3.5 mph - N/A   Clear
9:55 PM 62.6 °F 55.4 °F 77% 30.03 in 10.0 mi North 3.5 mph - N/A   Clear
10:15 PM 60.8 °F 55.4 °F 82% 30.04 in 10.0 mi Calm Calm - N/A   Clear
10:35 PM 60.8 °F 55.4 °F 82% 30.05 in 10.0 mi Calm Calm - N/A   Clear
10:55 PM 60.8 °F 55.4 °F 82% 30.05 in 10.0 mi Calm Calm - N/A   Clear
11:15 PM 59.0 °F 53.6 °F 82% 30.05 in 10.0 mi Calm Calm - N/A   Clear
11:35 PM 59.0 °F 55.4 °F 88% 30.05 in 10.0 mi Calm Calm - N/A   Clear
11:55 PM 59.0 °F 55.4 °F 88% 30.05 in 10.0 mi Calm Calm - N/A   Clear